STARLINK-32841, 62865

Orbit data source: Space-Track

STARLINK-32841, 62865 is a payload satellite owned by SpaceX/Seattle (US) in LEO that was launched on Sat, 01 Feb 2025 UTC via an FALCON 9 launch vehicle from the Air Force Western Test Range (AFWTR). Payload-class satellites include a variety of spacecraft equipped with specific instruments for various scientific and technological missions. These include communications satellites like Starlink; space stations such as the ISS; scientific satellites like the Hubble; Earth observation satellites from companies like Planet Labs, Umbra, and HawkEye 360; GPS; miniature CubeSats for education and research; and military/defense satellites.

Loading next visibility...
Identifier
62865, 2025-022M
Orbit
LEO
Country
Flag of USUS
Related business
Manufacturer
SpaceX/Seattle
Mission
Operational Commercial Communications
Bus & Motor
STARLINK V2M, Unknown motor
Mass
730 kg wet, ~700 kg dry
Launch date (UTC)
2025-02-01 (9 months ago)
Launch vehicle
FALCON 9
Launch site
Air Force Western Test Range (AFWTR)
Object type
Payload
Rocket body
Debris
Shape & HBR
Box + 2 Pan, 17.7 m
Radar Cross Section
33.884 m², Large (>1 m²)

Expand to show TLE details & history
Last TLE update: 19 hours ago

TLE from 19 hours ago
0 STARLINK-32841
1 62865U 25022M   25309.48488629  .00031848  00000-0  10825-2 0  9998
2 62865  53.1600 346.5493 0001316  94.4109 265.7042 15.30208426 42874
Epoch: 2025-11-05T11:38Z
TLE epoch observation values (Epoch: 2025-11-05T11:38:14.175Z)
Latitude
-0.00003°
Longitude
127.03333°
Altitude
476.157 km
Speed
7.629 km/s
True Right ascension
23h 06m 11s
True Declination
0° 00' 00"
Sunlit
Object was in full shadow at epoch
Visualization orbit readout
Latitude
Unknown
Longitude
Unknown
Altitude
Unknown
Speed
Unknown
Apparent Right ascension
Unknown
Apparent Declination
Unknown
Sunlit
N/A
Visualization observer readout
Local Sidereal Time
02:50:49
Azimuth
Unknown
Elevation
Unknown
Doppler factor
Unknown
Orbital elements
Apogee altitude
476.348 km
Perigee altitude
474.544 km
Semi-major axis
6,853.583 km
Eccentricity
0.00013
Inclination
53.16°
RAAN
346.5493°
Arg. of periapsis
94.4109°
True anomaly
265.68916°
Mean anomaly
265.7042°
Eccentric anomaly
265.69668°
Mean motion
3.82531 °/min
Orbital period
94.11 mins
BSTAR
0.0010825
Loading maneuver chart data...
Computing Atmospheric mass density...
Loading historical data...
Loading historical data...
Loading historical data...
Loading historical data...
Loading historical data...
Loading historical data...
Loading historical data...

Documentation

Showing up to 5 results
|